EKEB

Esbjerg

Airport
ICAO code
EKEB
Summary
ICAO Region
EUR
ICAO Territory
Location

Esbjerg,

Elevation
97 ft
Coordinates
55° 31' 33" N , 8° 33' 12" E
KCC
Metar
EKEB 251120Z AUTO 07009KT 050V110 9999 SCT034/// 19/12 Q1018

Description

Esbjerg Airport (IATA: EBJ) is a small airport located 5 nm northeast of Esbjerg, Denmark.

Climatology

Temperate Marine climate/Oceanic climate (Köppen climate classification Cfb). Moderately cool summer and comparatively warm winter with a temperature range of only 14°C. Prevailing south-westerly winds from the Atlantic Ocean.

Runways

Designator Length Width Surface Rops
8/26 2599 45 ASP Yes/Yes

Airport map

Aerial View

SKYbrary Partners:

Safety knowledge contributed by: